Location: Ar Ranvel
(48.3000°N, 4.8833°W)
Time: 15:14:45
(UTC+00:00)

Cosmos 1953 - Pass Details

Date: 16 June 2021
Orbit: 537 x 557 km, 82.5° (Epoch: 04 August)

Event Time Altitude Azimuth Distance (km) Brightness Sun altitude
Rises 22:41:33 0° 338° (NNW) 2,754 7.8 -15.0°
Reaches altitude 10° 22:44:06 10° 322° (NW) 1,854 6.3 -15.1°
Maximum altitude 22:47:13 21° 273° (W) 1,273 4.4 -15.3°
Drops below altitude 10° 22:50:18 10° 223° (SW) 1,841 4.7 -15.5°
Enters shadow 22:50:41 - 219° (SW) 1,964 4.9 -15.6°
